RZO596 LPPD-LPMA

Flight info

Callsign RZO596
Flight time N/A
Altitude 35000
Route VSM DCT ETROX DCT 35N020W DCT IRKID/N0450F350 DCT IBBAN
Aircraft A321/M-SDE3FGHIRWY/LB1

Departure

Time 2026-05-05 21:36
Airport João Paulo II Airport (LPPD)

Arrival

Time N/A
Airport Cristiano Ronaldo International Airport (LPMA)
Time Latitude Longitude Altitude Speed Heading
2026-05-05 21:35 37.61671 -25.81348 12076 ft 381 kts 139°
2026-05-05 21:36 37.59574 -25.79241 12736 ft 390 kts 140°
2026-05-05 21:36 37.57431 -25.77113 13505 ft 395 kts 141°
2026-05-05 21:36 37.55311 -25.75021 14866 ft 377 kts 141°
2026-05-05 21:36 37.53296 -25.73032 16272 ft 357 kts 140°
2026-05-05 21:37 37.51395 -25.71146 17613 ft 340 kts 140°
2026-05-05 21:37 37.49578 -25.69337 18450 ft 336 kts 140°
2026-05-05 21:37 37.47743 -25.67505 19014 ft 338 kts 140°
2026-05-05 21:37 37.45893 -25.65654 19494 ft 341 kts 140°
2026-05-05 21:38 37.44025 -25.63786 19975 ft 344 kts 140°
2026-05-05 21:38 37.42139 -25.61903 20409 ft 348 kts 140°
2026-05-05 21:38 37.40225 -25.59996 20834 ft 352 kts 140°
2026-05-05 21:38 37.38292 -25.58075 21282 ft 355 kts 140°
2026-05-05 21:39 37.36342 -25.56144 21699 ft 359 kts 140°
2026-05-05 21:39 37.34368 -25.54186 22119 ft 362 kts 140°
2026-05-05 21:39 37.32386 -25.52218 22520 ft 365 kts 140°
2026-05-05 21:39 37.30407 -25.50253 22907 ft 369 kts 140°
2026-05-05 21:40 37.28382 -25.48243 23292 ft 372 kts 140°
2026-05-05 21:40 37.26340 -25.46218 23679 ft 375 kts 140°
2026-05-05 21:40 37.24280 -25.44177 24022 ft 379 kts 140°
2026-05-05 21:40 37.22198 -25.42118 24322 ft 382 kts 139°
2026-05-05 21:41 37.20100 -25.40049 24611 ft 385 kts 139°
2026-05-05 21:41 37.17987 -25.37970 24905 ft 388 kts 139°
2026-05-05 21:41 37.14461 -25.34504 25375 ft 392 kts 139°
2026-05-05 21:41 37.05740 -25.25917 26400 ft 407 kts 138°
2026-05-05 21:42 36.96796 -25.16620 26975 ft 427 kts 126°
2026-05-05 21:42 36.90278 -25.04083 27576 ft 440 kts 115°
2026-05-05 21:42 36.83761 -24.90748 28124 ft 461 kts 114°
2026-05-05 21:42 36.77035 -24.76941 28574 ft 482 kts 114°
2026-05-05 21:43 36.69813 -24.62185 28993 ft 502 kts 115°
2026-05-05 21:43 36.62457 -24.47216 29517 ft 512 kts 114°
2026-05-05 21:43 36.54963 -24.32016 30117 ft 516 kts 114°
2026-05-05 21:43 36.47509 -24.17028 30784 ft 514 kts 114°
2026-05-05 21:44 36.40097 -24.01904 31461 ft 506 kts 108°
2026-05-05 21:44 36.34908 -23.85946 32203 ft 497 kts 104°
2026-05-05 21:44 36.29638 -23.70125 32957 ft 495 kts 104°
2026-05-05 21:44 36.24464 -23.54383 33695 ft 492 kts 104°
2026-05-05 21:45 36.19270 -23.38759 34480 ft 488 kts 104°